Location: Unspecified
(35.6961°N, 0.0000°E)
Time: 18:24:37
(UTC+00:00)

Transit 2A Rocket - Visible Passes

Search period start: 24 May 2019 00:00
Search period end: 03 June 2019 00:00
Orbit: 585 x 918 km, 66.7° (Epoch: 24 May)

Date Brightness Start Highest point End Pass type
(mag) Time Alt. Az. Time Alt. Az. Time Alt. Az.
24 May 7.6 01:08:28 10° N 01:12:10 18° NE 01:15:39 10° E visible
24 May 4.9 02:49:58 10° NW 02:55:19 61° WSW 02:58:14 24° S visible
25 May 7.9 00:27:39 10° NNE 00:29:07 11° NE 00:30:34 10° ENE visible
25 May 5.0 02:07:23 10° NNW 02:12:51 74° ENE 02:14:46 38° SE visible
25 May 6.8 03:53:19 10° W 03:54:31 11° W 03:54:33 11° W visible
26 May 6.1 01:25:04 10° NNW 01:30:14 41° ENE 01:31:52 32° E visible
26 May 6.3 03:08:31 10° WNW 03:11:41 21° W 03:11:41 21° W visible
27 May 6.9 00:43:02 10° N 00:47:27 24° NE 00:49:18 20° E visible
27 May 5.7 02:25:15 10° NW 02:29:08 35° W 02:29:08 35° W visible
28 May 7.5 00:01:25 10° N 00:04:30 15° NE 00:06:57 11° ENE visible
28 May 5.3 01:42:28 10° NNW 01:46:48 55° NW 01:46:48 55° NW visible
29 May 5.6 00:59:58 10° NNW 01:04:37 54° NNE 01:04:37 54° NNE visible
30 May 6.3 00:17:45 10° N 00:22:33 34° NE 00:22:33 34° NE visible
30 May 6.8 02:00:44 10° NW 02:02:24 17° WNW 02:02:24 17° WNW visible
30 May 7.0 23:35:49 10° N 23:39:49 20° NE 23:40:35 20° ENE visible
31 May 6.4 01:17:40 10° NW 01:20:27 29° NW 01:20:27 29° NW visible
31 May 7.5 22:54:33 10° NNE 22:56:50 13° NE 22:58:42 11° ENE visible
01 Jun 6.0 00:34:59 10° NNW 00:38:34 42° NNW 00:38:34 42° NNW visible
01 Jun 6.0 23:52:35 10° NNW 23:56:44 42° NNE 23:56:44 42° NNE visible
02 Jun 7.4 01:36:34 10° WNW 01:36:36 10° WNW 01:36:36 10° WNW visible
02 Jun 6.5 23:10:27 10° N 23:14:58 28° NE 23:14:58 28° NE visible
